TimeEDT,TemperatureF,Dew PointF,Humidity,Sea Level PressureIn,VisibilityMPH,Wind Direction,Wind SpeedMPH,Gust SpeedMPH,PrecipitationIn,Events,Conditions,WindDirDegrees,DateUTC
12:53 AM,64.9,55.9,73,30.02,10.0,Calm,Calm,-,N/A,,Clear,0,2013-06-05 04:53:00
1:53 AM,64.0,55.9,75,30.02,10.0,Calm,Calm,-,N/A,,Scattered Clouds,0,2013-06-05 05:53:00
2:53 AM,63.0,55.9,78,30.01,10.0,Calm,Calm,-,N/A,,Mostly Cloudy,0,2013-06-05 06:53:00
3:53 AM,62.1,55.9,80,30.00,10.0,North,3.5,-,N/A,,Scattered Clouds,350,2013-06-05 07:53:00
4:53 AM,61.0,55.9,83,30.01,10.0,Calm,Calm,-,N/A,,Partly Cloudy,0,2013-06-05 08:53:00
5:53 AM,59.0,55.9,90,30.02,10.0,Calm,Calm,-,N/A,,Partly Cloudy,0,2013-06-05 09:53:00
6:53 AM,59.0,57.0,93,30.03,8.0,Calm,Calm,-,N/A,,Clear,0,2013-06-05 10:53:00
7:53 AM,61.0,57.9,90,30.03,9.0,Calm,Calm,-,N/A,,Mostly Cloudy,0,2013-06-05 11:53:00
8:53 AM,66.0,60.1,81,30.03,10.0,SSE,3.5,-,N/A,,Clear,150,2013-06-05 12:53:00
9:53 AM,73.0,63.0,71,30.01,10.0,South,5.8,-,N/A,,Clear,190,2013-06-05 13:53:00
10:53 AM,77.0,64.0,64,30.00,10.0,Variable,3.5,-,N/A,,Mostly Cloudy,0,2013-06-05 14:53:00
11:53 AM,80.1,64.0,58,29.98,10.0,Variable,4.6,-,N/A,,Mostly Cloudy,0,2013-06-05 15:53:00
12:53 PM,80.1,64.0,58,29.97,10.0,Variable,3.5,-,N/A,,Scattered Clouds,0,2013-06-05 16:53:00
1:19 PM,71.6,68.0,88,30.00,1.8,South,11.5,-,0.11,Rain,Heavy Rain,180,2013-06-05 17:19:00
1:27 PM,71.6,66.2,83,30.01,2.0,SSE,6.9,-,0.13,Rain-Thunderstorm,Thunderstorms and Rain,160,2013-06-05 17:27:00
1:35 PM,71.6,68.0,88,30.00,10.0,ESE,4.6,-,0.13,Rain-Thunderstorm,Light Thunderstorms and Rain,110,2013-06-05 17:35:00
1:53 PM,75.9,69.1,79,29.97,10.0,Calm,Calm,-,0.13,Thunderstorm,Partly Cloudy,0,2013-06-05 17:53:00
2:26 PM,71.6,68.0,88,30.02,1.5,SW,11.5,18.4,0.12,Rain-Thunderstorm,Heavy Thunderstorms and Rain,230,2013-06-05 18:26:00
2:44 PM,68.0,64.4,88,30.02,3.0,SSW,6.9,20.7,0.27,Rain-Thunderstorm,Thunderstorms and Rain,210,2013-06-05 18:44:00
2:53 PM,68.0,64.9,90,29.99,4.0,West,8.1,-,0.29,Rain-Thunderstorm,Light Thunderstorms and Rain,260,2013-06-05 18:53:00
3:21 PM,68.0,66.2,94,30.02,3.0,West,5.8,-,0.04,Rain,Light Rain,260,2013-06-05 19:21:00
3:53 PM,68.0,66.0,93,29.98,8.0,Variable,3.5,-,0.04,Rain,Light Rain,0,2013-06-05 19:53:00
4:53 PM,70.0,66.0,87,29.94,10.0,SE,3.5,-,0.00,,Scattered Clouds,140,2013-06-05 20:53:00
5:53 PM,71.1,66.0,84,29.92,10.0,ESE,3.5,-,N/A,,Partly Cloudy,110,2013-06-05 21:53:00
6:53 PM,71.1,66.0,84,29.92,10.0,South,3.5,-,N/A,,Partly Cloudy,170,2013-06-05 22:53:00
7:42 PM,71.6,66.2,83,29.94,10.0,Calm,Calm,-,N/A,,Overcast,0,2013-06-05 23:42:00
7:53 PM,71.1,66.0,84,29.91,10.0,SSE,3.5,-,N/A,,Mostly Cloudy,160,2013-06-05 23:53:00
8:53 PM,70.0,66.0,87,29.90,10.0,Calm,Calm,-,N/A,,Partly Cloudy,0,2013-06-06 00:53:00
9:53 PM,68.0,64.9,90,29.90,10.0,Calm,Calm,-,N/A,,Clear,0,2013-06-06 01:53:00
10:53 PM,66.9,63.0,87,29.91,10.0,Calm,Calm,-,N/A,,Clear,0,2013-06-06 02:53:00
11:53 PM,66.0,63.0,90,29.91,10.0,Calm,Calm,-,N/A,,Overcast,0,2013-06-06 03:53:00